Location: DARK SKY Beskydy - Park tmavé oblohy, www.darkskybeskydy.cz
(49.4926°N, 18.5016°E)
Time: 10:39:59
(UTC+02:00)

Transit 4A - Pass Details

Date: 02 March 2024
Orbit: 871 x 971 km, 66.8° (Epoch: 24 April)

Event Time Altitude Azimuth Distance (km) Brightness Sun altitude
Exits shadow 00:43:10 13° 33° (NNE) 2,382 10.5 -46.6°
Drops below altitude 10° 00:43:38 10° 34° (NNE) 2,555 10.7 -46.5°
Sets 00:46:12 0° 36° (NE) 3,512 11.6 -46.4°
